Saginaw, MI

12:51 PM EST on December 07, 2016 (GMT -0500)
Saginaw County-Browne

Weather History for KHYX - October, 2012

Change the Weather History Date:

Thursday, October 4, 2012

  Actual Average (KMBS) Record (KMBS)
Temperature  
Mean Temperature 68 °F 54 °F  
Max Temperature 77 °F 64 °F 86 °F (2005)
Min Temperature 59 °F 44 °F 30 °F (1996)
Degree Days  
Heating Degree Days 0    
Month to date heating degree days  
Since 1 July heating degree days  
Cooling Degree Days 3    
Month to date cooling degree days  
Year to date cooling degree days  
Growing Degree Days 18 (Base 50)    
Moisture  
Dew Point 56 °F    
Average Humidity 78    
Maximum Humidity 100    
Minimum Humidity 39    
Precipitation  
Precipitation 0.00 in 0.10 in 2.48 in (2006)
Month to date precipitation 0.40  
Year to date precipitation 24.75  
Snow  
Snow 0.00 in - - ()
Month to date snowfall  
Since 1 July snowfall  
Since 1 September snowfall  
Snow Depth -    
Sea Level Pressure  
Sea Level Pressure 30.00 in    
Wind  
Wind Speed 7 mph (SW)    
Max Wind Speed 16 mph    
Max Gust Speed 21 mph    
Visibility 8 miles    
Events Rain    
T = Trace of Precipitation, MM = Missing Value Source: NWS Daily Summary

Daily Weather History Graph

Daily Weather History Graph

Search for Another Location

Airport or City:

Trip Planner

Search our weather history database for the weather conditions in past years. The results will help you decide how hot, cold, wet, or windy it might be!

Date:

Astronomy

Oct. 04, 2012 Rise Set
Actual Time 7:36 AM EDT 7:10 PM EDT
Civil Twilight 7:08 AM EDT 7:38 PM EDT
Nautical Twilight 6:35 AM EDT 8:11 PM EDT
Astronomical Twilight 6:01 AM EDT 8:45 PM EDT
Moon 9:37 PM EDT (10/4) 12:01 PM EDT (10/4)
Length of Visible Light 12h 30m
Length of Day
11h 33m
Waning Gibbous, 82% of the Moon is Illuminated
Oct 4
Waning Gibbous
Oct 8
Last Quarter
Oct 15
New
Oct 21
First Quarter
Oct 29
Full

Hourly Weather History & Observations

Time (EDT) Temp. Dew Point Humidity Pressure Visibility Wind Dir Wind Speed Gust Speed Precip Events Conditions
12:10 AM 60.8 °F 55.4 °F 82% 30.04 in 10.0 mi South 4.6 mph - N/A   Overcast
12:30 AM 60.8 °F 55.4 °F 82% 30.03 in 10.0 mi South 5.8 mph - N/A   Overcast
12:50 AM 59.0 °F 57.2 °F 94% 30.03 in 10.0 mi South 5.8 mph - N/A   Overcast
1:10 AM 59.0 °F 57.2 °F 94% 30.03 in 5.0 mi SSW 5.8 mph - N/A   Light Drizzle
1:30 AM 59.0 °F 59.0 °F 100% 30.02 in 7.0 mi SSW 4.6 mph - N/A   Overcast
1:50 AM 59.0 °F 59.0 °F 100% 30.03 in 7.0 mi SSW 3.5 mph - N/A   Overcast
2:10 AM 59.0 °F 59.0 °F 100% 30.03 in 10.0 mi Calm Calm - N/A   Overcast
2:30 AM 59.0 °F 57.2 °F 94% 30.03 in 10.0 mi SSW 4.6 mph - N/A   Overcast
2:50 AM 59.0 °F 57.2 °F 94% 30.02 in 10.0 mi South 4.6 mph - N/A   Overcast
3:11 AM 60.8 °F 57.2 °F 88% 30.01 in 10.0 mi SSW 8.1 mph - N/A   Overcast
3:31 AM 60.8 °F 57.2 °F 88% 30.01 in 7.0 mi SSW 10.4 mph - N/A Rain Rain
3:51 AM 59.0 °F 59.0 °F 100% 30.01 in 5.0 mi SSW 9.2 mph - N/A Rain Rain
4:11 AM 59.0 °F 59.0 °F 100% 30.00 in 5.0 mi SSW 6.9 mph - N/A Rain Rain
4:31 AM 59.0 °F 59.0 °F 100% 30.00 in 7.0 mi SSW 4.6 mph - N/A Rain Rain
4:51 AM 59.0 °F 57.2 °F 94% 30.00 in 7.0 mi SW 5.8 mph - N/A Rain Light Rain
5:11 AM 59.0 °F 57.2 °F 94% 30.01 in 7.0 mi SW 5.8 mph - N/A Rain Rain
5:31 AM 59.0 °F 57.2 °F 94% 30.01 in 7.0 mi SW 8.1 mph - N/A Rain Light Rain
5:51 AM 59.0 °F 57.2 °F 94% 30.01 in 7.0 mi SW 6.9 mph - N/A Rain Light Rain
6:11 AM 59.0 °F 57.2 °F 94% 30.01 in 7.0 mi SW 6.9 mph - N/A Rain Light Rain
6:32 AM 59.0 °F 57.2 °F 94% 30.01 in 5.0 mi SW 5.8 mph - N/A   Overcast
6:52 AM 59.0 °F 57.2 °F 94% 30.01 in 7.0 mi SSW 9.2 mph - N/A   Overcast
7:12 AM 59.0 °F 57.2 °F 94% 30.01 in 5.0 mi SSW 9.2 mph - N/A   Overcast
7:32 AM 59.0 °F 57.2 °F 94% 30.02 in 7.0 mi SSW 8.1 mph - N/A   Overcast
7:52 AM 59.0 °F 55.4 °F 88% 30.02 in 4.0 mi SW 5.8 mph - N/A   Overcast
8:12 AM 59.0 °F 57.2 °F 94% 30.02 in 5.0 mi SSW 8.1 mph - N/A   Overcast
8:32 AM 59.0 °F 57.2 °F 94% 30.03 in 4.0 mi SSW 8.1 mph - N/A   Overcast
8:52 AM 59.0 °F 57.2 °F 94% 30.02 in 4.0 mi SSW 6.9 mph - N/A   Mostly Cloudy
9:13 AM 59.0 °F 57.2 °F 94% 30.02 in 3.0 mi SSW 6.9 mph - N/A Rain Light Rain
9:33 AM 59.0 °F 57.2 °F 94% 30.02 in 5.0 mi SW 3.5 mph - N/A   Overcast
9:53 AM 60.8 °F 59.0 °F 94% 30.02 in 5.0 mi SW 8.1 mph - N/A   Overcast
10:12 AM 60.8 °F 57.2 °F 88% 30.02 in 5.0 mi SSW 8.1 mph - N/A   Overcast
10:33 AM 60.8 °F 59.0 °F 94% 30.03 in 7.0 mi SW 5.8 mph - N/A   Overcast
10:53 AM 59.0 °F 59.0 °F 100% 30.04 in 2.5 mi SW 8.1 mph - N/A   Overcast
11:08 AM 60.8 °F 59.0 °F 94% 30.04 in 4.0 mi SW 9.2 mph - N/A   Overcast
11:33 AM 62.6 °F 59.0 °F 88% 30.04 in 7.0 mi SW 9.2 mph - N/A   Mostly Cloudy
11:53 AM 62.6 °F 59.0 °F 88% 30.04 in 7.0 mi SW 10.4 mph 17.3 mph N/A   Overcast
12:14 PM 62.6 °F 59.0 °F 88% 30.04 in 7.0 mi WSW 8.1 mph - N/A   Overcast
12:34 PM 64.4 °F 57.2 °F 77% 30.03 in 10.0 mi SW 11.5 mph 16.1 mph N/A   Overcast
12:54 PM 66.2 °F 57.2 °F 73% 30.03 in 10.0 mi WSW 9.2 mph 18.4 mph N/A   Scattered Clouds
1:14 PM 68.0 °F 57.2 °F 68% 30.02 in 10.0 mi WSW 11.5 mph 17.3 mph N/A   Scattered Clouds
1:34 PM 69.8 °F 55.4 °F 60% 30.01 in 10.0 mi SW 10.4 mph 17.3 mph N/A   Scattered Clouds
1:54 PM 69.8 °F 55.4 °F 60% 30.01 in 10.0 mi SW 9.2 mph 16.1 mph N/A   Clear
2:34 PM 71.6 °F 55.4 °F 57% 29.99 in 10.0 mi WSW 12.7 mph 18.4 mph N/A   Clear
2:49 PM 73.4 °F 55.4 °F 53% 29.99 in 10.0 mi WSW 9.2 mph - N/A   Clear
3:09 PM 73.4 °F 53.6 °F 50% 29.98 in 10.0 mi SW 9.2 mph 18.4 mph N/A   Clear
3:30 PM 75.2 °F 53.6 °F 47% 29.98 in 10.0 mi WSW 12.7 mph 19.6 mph N/A   Clear
3:50 PM 75.2 °F 51.8 °F 44% 29.97 in 10.0 mi WSW 13.8 mph 19.6 mph N/A   Clear
4:10 PM 77.0 °F 51.8 °F 41% 29.97 in 10.0 mi WSW 10.4 mph - N/A   Clear
4:30 PM 77.0 °F 50.0 °F 39% 29.96 in 10.0 mi WSW 13.8 mph 20.7 mph N/A   Clear
4:50 PM 77.0 °F 50.0 °F 39% 29.97 in 10.0 mi SW 11.5 mph 19.6 mph N/A   Clear
5:10 PM 75.2 °F 50.0 °F 41% 29.97 in 10.0 mi WSW 16.1 mph - N/A   Clear
5:30 PM 75.2 °F 50.0 °F 41% 29.97 in 10.0 mi WSW 13.8 mph 20.7 mph N/A   Clear
5:50 PM 73.4 °F 50.0 °F 44% 29.97 in 10.0 mi SW 11.5 mph - N/A   Scattered Clouds
6:10 PM 73.4 °F 50.0 °F 44% 29.96 in 10.0 mi SW 11.5 mph 19.6 mph N/A   Scattered Clouds
6:31 PM 73.4 °F 50.0 °F 44% 29.96 in 10.0 mi SW 9.2 mph - N/A   Scattered Clouds
6:51 PM 71.6 °F 50.0 °F 46% 29.96 in 10.0 mi SW 9.2 mph - N/A   Scattered Clouds
7:11 PM 71.6 °F 50.0 °F 46% 29.96 in 10.0 mi SSW 9.2 mph - N/A   Mostly Cloudy
7:31 PM 71.6 °F 50.0 °F 46% 29.96 in 10.0 mi SSW 8.1 mph - N/A   Mostly Cloudy
7:51 PM 69.8 °F 51.8 °F 53% 29.97 in 10.0 mi SW 3.5 mph - N/A Rain Light Rain
8:11 PM 69.8 °F 51.8 °F 53% 29.96 in 10.0 mi SW 9.2 mph - N/A   Overcast
8:31 PM 69.8 °F 51.8 °F 53% 29.96 in 10.0 mi SW 4.6 mph - N/A   Mostly Cloudy
8:51 PM 68.0 °F 53.6 °F 60% 29.96 in 10.0 mi Calm Calm - N/A   Mostly Cloudy
10:12 PM 62.6 °F 57.2 °F 82% 29.96 in 10.0 mi SW 6.9 mph - N/A Rain Light Rain
10:32 PM 62.6 °F 59.0 °F 88% 29.96 in 10.0 mi SW 8.1 mph - N/A   Overcast
10:52 PM 62.6 °F 59.0 °F 88% 29.97 in 7.0 mi SSW 9.2 mph - N/A Rain Rain
11:12 PM 62.6 °F 60.8 °F 94% 29.97 in 10.0 mi SW 11.5 mph - N/A   Overcast
11:32 PM 62.6 °F 60.8 °F 94% 29.96 in 7.0 mi SW 11.5 mph 16.1 mph N/A Rain Light Rain
11:52 PM 62.6 °F 60.8 °F 94% 29.96 in 10.0 mi SW 11.5 mph - N/A   Overcast